Regional Weather Roundup
Issued by NWS State College, PA

Home | Current Version | Previous Version | Graphics & Text | Print | Product List | Glossary Off
Versions: 1 2 3 4 5 6 7 8 9 10 11 12 13 14 15 16 17 18 19 20 21 22 23 24 25 26 27 28 29 30 31 32 33 34 35 36 37 38 39 40 41 42 43 44 45 46 47 48 49 50

000
ASUS41 KCTP 011110
RWRCTP

REGIONAL WEATHER ROUNDUP
NATIONAL WEATHER SERVICE STATE COLLEGE PA
600 AM EST WED MAR 01 2017

Note: "fair" indicates few or no clouds below 12,000 feet with no
significant weather and/or obstructions to visibility.

* = STATION THAT DOES NOT REPORT PRECIPITATION /E.G. RAIN...SNOW...ETC/
    THUNDER OR FOG.

PAZ002>004-007>009-013>016-020>023-029>032-011200-
WESTERN PENNSYLVANIA

CITY           SKY/WX    TMP DP  RH WIND       PRES   REMARKS
ERIE           CLOUDY    62  51  67 SW28G39   29.46F
MEADVILLE      CLOUDY    56  49  77 S18G29    29.50F
FRANKLIN*      CLOUDY    54  50  87 S21G30    29.55F
NEW CASTLE     FAIR      57  55  93 S12G18    29.55F
BEAVER COUNTY  NOT AVBL
BUTLER*        CLOUDY    57  55  94 S12       29.62F
PITTSBURGH INT RAIN      59  58  96 S10       29.64F FOG
PITTSBURGH     RAIN      58  55  90 SW10      29.67F FOG
INDIANA*       CLOUDY    59  57  94 W17G26    29.73R FOG
LATROBE        HVY RAIN  59  59 100 W5        29.69F
WASHINGTON CO* CLOUDY    57  54  88 SW8G16    29.69F
$$

PAZ004>006-010>012-017>019-024>028-033>037-041-042-045-046-049>053-011200-
CENTRAL PENNSYLVANIA

CITY           SKY/WX    TMP DP  RH WIND       PRES   REMARKS
BRADFORD       CLOUDY    58  54  86 SW21G32   29.60R
DUBOIS         LGT RAIN  57  54  89 SW16G35   29.67R FOG
CLEARFIELD       N/A    N/A N/A N/A MISG      29.66F
JOHNSTOWN      TSTM      57  56  96 SW9G24    29.71F FOG
ALTOONA        CLOUDY    55  52  89 S8        29.72F
STATE COLLEGE  CLEAR     50  48  93 W6        29.69F
WILLIAMSPORT   CLOUDY    54  49  83 E13G22    29.68F
SELINSGROVE    CLOUDY    53  51  93 VRB3      29.74F
FT INDIANTOWN  CLOUDY    53  53 100 S3        29.78F
CAPITAL CITY   CLOUDY    57  52  83 S3        29.78F
HARRISBURG     CLOUDY    54  53  97 SE7       29.78F
YORK           CLOUDY    55  55 100 S5        29.78F
$$

PAZ038>040-043-044-047-048-054-055-060>062-067>071-011200-
EASTERN PENNSYLVANIA

CITY           SKY/WX    TMP DP  RH WIND       PRES   REMARKS
SCRANTON       CLOUDY    57  51  80 SW9       29.73F
MOUNT POCONO   CLOUDY    50  50 100 SW7       29.77F
ALLENTOWN      CLOUDY    58  52  80 VRB6      29.79F
QUAKERTOWN*    CLOUDY    57  55  94 S6        29.81F
READING        CLOUDY    57  56  96 S6        29.79F
LANCASTER      CLOUDY    57  56  96 S7        29.79F
COATESVILLE    FOG       55  55 100 VRB7G13   29.83F VSB 1/2
POTTSTOWN      CLOUDY    57  54  89 SW7       29.82F
BLUE BELL      CLOUDY    55  55 100 SW8       29.81F
DOYLESTOWN     CLOUDY    57  56  96 S8        29.80F
WILLOW GROVE   NOT AVBL
NORTH PHILA    CLOUDY    59  57  93 SW10      29.84F FOG
PHILADELPHIA   CLOUDY    57  55  93 SW12      29.83F FOG
$$



USA.gov is the U.S. government's official web portal to all federal, state and local government web resources and services.